CW4784 Weather Reports


time (UTC)temp
C
wind
direction
speed
KPH
gust
KPH
rain 1hr
cm
rain 24hr
cm
rain mn
cm
humidity
%
barometer
mb
20260505171511 7 360 16.1 29.0 0.00 0.00 0.00 65 1013.7
20260505171006 7 360 14.5 29.0 0.00 0.00 0.00 64 1013.8
20260505170502 7 360 12.9 24.1 0.00 0.00 0.00 64 1013.9
20260505170007 7 360 14.5 24.1 0.00 0.00 0.00 64 1014.0
20260505165503 7 360 12.9 20.9 0.00 0.00 0.00 64 1014.0
20260505165005 7 360 11.3 20.9 0.00 0.00 0.00 64 1013.9
20260505164508 7 360 8.0 20.9 0.00 0.00 0.00 65 1014.0
20260505164006 7 360 11.3 19.3 0.00 0.00 0.00 65 1014.0
20260505163513 7 360 11.3 20.9 0.00 0.00 0.00 66 1014.1
20260505163021 7 360 8.0 25.7 0.00 0.00 0.00 67 1014.1
20260505162506 7 360 8.0 25.7 0.00 0.00 0.00 67 1013.9
20260505162007 7 360 8.0 22.5 0.00 0.00 0.00 68 1013.9
20260505161510 6 360 14.5 25.7 0.00 0.00 0.00 67 1014.0
20260505161004 7 360 11.3 25.7 0.00 0.00 0.00 66 1014.1
20260505160507 7 360 12.9 22.5 0.00 0.00 0.00 65 1014.0
20260505153012 8 360 8.0 14.5 0.00 0.00 0.00 57 1014.0
20260505152506 8 360 4.8 16.1 0.00 0.00 0.00 57 1013.9
20260505152008 8 360 8.0 16.1 0.00 0.00 0.00 58 1013.9
20260505151512 8 360 9.7 17.7 0.00 0.00 0.00 58 1014.0
20260505151006 8 360 9.7 17.7 0.00 0.00 0.00 59 1014.1
20260505150507 8 360 8.0 16.1 0.00 0.00 0.00 59 1014.1
20260505140504 7 360 4.8 14.5 0.00 0.00 0.00 59 1014.2
20260505125006 7 360 8.0 16.1 0.00 0.00 0.00 62 1013.4
20260505124513 7 360 6.4 14.5 0.00 0.00 0.00 62 1013.2
20260505124007 7 360 4.8 14.5 0.00 0.00 0.00 62 1013.2
20260505123509 7 360 6.4 14.5 0.00 0.00 0.00 63 1013.2
20260505123019 7 360 3.2 6.4 0.00 0.00 0.00 65 1013.1
20260505122509 7 360 0.0 4.8 0.00 0.00 0.00 66 1013.0
20260505122004 7 360 0.0 6.4 0.00 0.00 0.00 66 1012.9
20260505121514 7 360 1.6 6.4 0.00 0.00 0.00 67 1012.9
20260505121005 7 360 1.6 4.8 0.00 0.00 0.00 67 1012.8
20260505120504 7 360 1.6 4.8 0.00 0.00 0.00 69 1012.7
20260505120023 7 360 0.0 3.2 0.00 0.00 0.00 69 1012.7
20260505115504 7 360 0.0 4.8 0.00 0.00 0.00 69 1012.6
20260505115009 7 360 1.6 4.8 0.00 0.00 0.00 69 1012.5
20260505114522 7 360 0.0 4.8 0.00 0.00 0.00 69 1012.5
20260505114006 7 360 0.0 6.4 0.00 0.00 0.00 69 1012.4
20260505113505 7 360 1.6 6.4 0.00 0.00 0.00 69 1012.3
20260505113012 6 360 3.2 6.4 0.00 0.00 0.00 69 1012.4
20260505112504 6 360 1.6 9.7 0.00 0.00 0.00 69 1012.3
20260505112006 6 360 3.2 12.9 0.00 0.00 0.00 69 1012.3
20260505111518 6 360 6.4 12.9 0.00 0.00 0.00 69 1012.3
20260505111004 6 360 6.4 8.0 0.00 0.00 0.00 69 1012.2
20260505110512 6 360 4.8 8.0 0.00 0.00 0.00 69 1012.3
20260505102008 6 360 8.0 12.9 0.00 0.00 0.00 68 1012.3
20260505101528 7 360 8.0 9.7 0.00 0.00 0.00 68 1012.4
20260505101006 7 360 4.8 8.0 0.00 0.00 0.00 68 1012.8
20260505100507 7 360 4.8 8.0 0.00 0.00 0.00 68 1012.7
20260505100039 7 360 4.8 8.0 0.00 0.00 0.00 68 1012.9
20260505095506 7 360 6.4 8.0 0.00 0.00 0.00 68 1012.8
20260505095011 7 360 4.8 8.0 0.00 0.00 0.00 67 1012.7
20260505094527 7 360 4.8 8.0 0.00 0.00 0.00 67 1012.7
20260505094009 7 360 4.8 8.0 0.00 0.00 0.00 67 1012.7
20260505093509 7 360 4.8 8.0 0.00 0.00 0.00 67 1012.6
20260505093024 7 360 4.8 8.0 0.00 0.00 0.00 66 1012.7
20260505092511 7 360 4.8 6.4 0.00 0.00 0.00 66 1012.5
20260505092006 7 360 3.2 8.0 0.00 0.00 0.00 66 1012.6
20260505091519 7 360 4.8 8.0 0.00 0.00 0.00 66 1012.5
20260505091008 7 360 3.2 6.4 0.00 0.00 0.00 66 1012.5
20260505090508 7 360 3.2 6.4 0.00 0.00 0.00 66 1012.7
20260505090017 7 360 3.2 6.4 0.00 0.00 0.00 66 1012.7
20260505085508 7 360 4.8 8.0 0.00 0.00 0.00 66 1012.7
20260505085007 8 360 4.8 9.7 0.00 0.00 0.00 66 1012.8
20260505084521 8 360 4.8 9.7 0.00 0.00 0.00 65 1012.8
20260505084010 8 360 6.4 9.7 0.00 0.00 0.00 65 1012.9
20260505083507 8 360 6.4 8.0 0.00 0.00 0.00 65 1012.8
20260505083025 8 360 4.8 9.7 0.00 0.00 0.00 64 1012.7
20260505082510 8 360 6.4 9.7 0.00 0.00 0.00 64 1012.7
20260505082012 8 360 4.8 8.0 0.00 0.00 0.00 63 1012.8
20260505081520 9 360 3.2 9.7 0.00 0.00 0.00 63 1013.0
20260505081010 9 360 4.8 9.7 0.00 0.00 0.00 63 1013.0
20260505080509 9 360 4.8 8.0 0.00 0.00 0.00 62 1013.1
20260505080017 9 360 3.2 9.7 0.00 0.00 0.00 62 1013.1
20260505075507 9 360 4.8 16.1 0.00 0.00 0.00 63 1013.1
20260505075011 9 360 9.7 16.1 0.00 0.00 0.00 63 1012.7
20260505074521 8 360 9.7 16.1 0.00 0.00 0.00 64 1012.7
20260505074012 8 360 6.4 16.1 0.00 0.00 0.00 65 1012.8
20260505073507 9 360 8.0 12.9 0.00 0.00 0.00 65 1012.8
20260505073032 9 360 6.4 8.0 0.00 0.00 0.00 65 1012.9
20260505072511 9 360 4.8 8.0 0.00 0.00 0.00 64 1013.0
20260505072010 9 360 4.8 9.7 0.00 0.00 0.00 64 1012.9
20260505071518 9 360 6.4 9.7 0.00 0.00 0.00 64 1012.9
20260505071003 9 360 4.8 12.9 0.00 0.00 0.00 64 1012.8
20260505070503 9 360 6.4 16.1 0.00 0.00 0.00 64 1012.8
20260505070005 10 360 8.0 16.1 0.00 0.00 0.00 64 1012.8
20260505065503 10 360 8.0 16.1 0.00 0.00 0.00 64 1012.9
20260505065003 10 360 9.7 16.1 0.00 0.00 0.00 64 1012.9
20260505064504 10 360 9.7 17.7 0.00 0.00 0.00 64 1012.9
20260505064002 10 360 11.3 17.7 0.00 0.00 0.00 64 1013.0
20260505063502 10 360 11.3 19.3 0.00 0.00 0.00 64 1013.1
20260505063004 9 360 8.0 19.3 0.00 0.00 0.00 65 1013.0
20260505062504 9 360 11.3 16.1 0.00 0.00 0.00 65 1012.8
20260505062006 9 360 9.7 16.1 0.00 0.00 0.00 65 1012.9
20260505061512 9 360 6.4 16.1 0.00 0.00 0.00 65 1012.9
20260505061003 9 360 8.0 14.5 0.00 0.00 0.00 66 1012.9
20260505060503 10 360 9.7 14.5 0.00 0.00 0.00 65 1012.8
20260505060005 10 360 8.0 12.9 0.00 0.00 0.00 64 1012.8
20260505055504 10 360 6.4 9.7 0.00 0.00 0.00 64 1012.8
20260505055004 10 360 6.4 11.3 0.00 0.00 0.00 63 1012.8
20260505054504 10 18 6.4 12.9 0.00 0.00 0.00 63 1012.7
20260505054007 10 17 6.4 12.9 0.00 0.00 0.00 62 1012.7
20260505053507 10 360 6.4 14.5 0.00 0.00 0.00 62 1012.5
20260505053004 10 360 8.0 14.5 0.00 0.00 0.00 61 1012.4
20260505052504 10 360 8.0 14.5 0.00 0.00 0.00 60 1012.5
20260505052006 10 360 9.7 16.1 0.00 0.00 0.00 59 1012.5
20260505051513 11 360 8.0 19.3 0.00 0.00 0.00 58 1012.5
20260505051006 11 360 9.7 19.3 0.00 0.00 0.00 58 1012.3
20260505050504 11 360 14.5 19.3 0.00 0.00 0.00 57 1012.3
20260505041508 12 360 14.5 22.5 0.00 0.00 0.00 50 1012.5
20260505041004 12 360 16.1 22.5 0.00 0.00 0.00 49 1012.7
20260505040506 12 360 12.9 20.9 0.00 0.00 0.00 49 1012.7
20260505040006 12 360 11.3 19.3 0.00 0.00 0.00 48 1012.6
20260505035508 12 360 8.0 24.1 0.00 0.00 0.00 48 1012.4
20260505035003 12 17 16.1 24.1 0.00 0.00 0.00 48 1012.3
20260505034506 13 17 12.9 22.5 0.00 0.00 0.00 47 1012.3
20260505034010 13 16 14.5 24.1 0.00 0.00 0.00 46 1012.2
20260505033503 13 360 17.7 27.4 0.00 0.00 0.00 46 1012.1
20260505033013 13 360 19.3 27.4 0.00 0.00 0.00 45 1011.9
20260505032505 13 9 17.7 25.7 0.00 0.00 0.00 44 1011.8
20260505032004 13 360 14.5 24.1 0.00 0.00 0.00 44 1011.7
20260505031507 13 11 16.1 24.1 0.00 0.00 0.00 43 1011.6
20260505031006 14 360 17.7 24.1 0.00 0.00 0.00 42 1011.4
20260505030505 14 17 12.9 19.3 0.00 0.00 0.00 41 1011.3
20260505030010 14 360 9.7 16.1 0.00 0.00 0.00 40 1011.1
20260505025503 15 360 6.4 17.7 0.00 0.00 0.00 40 1010.9
20260505025004 15 360 6.4 19.3 0.00 0.00 0.00 39 1010.7
20260505024507 15 360 11.3 22.5 0.00 0.00 0.00 39 1010.6
20260505024003 15 360 9.7 22.5 0.00 0.00 0.00 40 1010.4
20260505023502 15 360 11.3 22.5 0.00 0.00 0.00 39 1010.3
20260505023014 15 360 11.3 16.1 0.00 0.00 0.00 39 1010.2
20260505022506 15 360 4.8 14.5 0.00 0.00 0.00 39 1010.0
20260505022007 15 360 9.7 17.7 0.00 0.00 0.00 38 1010.0
20260505021505 15 360 11.3 17.7 0.00 0.00 0.00 37 1009.8
20260505021003 16 360 6.4 14.5 0.00 0.00 0.00 37 1009.7
20260505020503 16 360 6.4 14.5 0.00 0.00 0.00 37 1009.6
20260505020008 16 360 6.4 14.5 0.00 0.00 0.00 36 1009.6
20260505015506 16 360 6.4 14.5 0.00 0.00 0.00 36 1009.5
20260505015006 16 360 0.0 6.4 0.00 0.00 0.00 36 1009.5
20260505014515 16 360 0.0 17.7 0.00 0.00 0.00 35 1009.5
20260505014008 17 360 8.0 19.3 0.00 0.00 0.00 35 1009.2
20260505013503 17 360 11.3 20.9 0.00 0.00 0.00 31 1008.9
20260505013027 17 360 12.9 25.7 0.00 0.00 0.00 30 1008.7
20260505012502 17 360 12.9 30.6 0.00 0.00 0.00 29 1008.3
20260505012004 17 360 17.7 35.4 0.00 0.00 0.00 29 1008.0
20260505011509 18 360 20.9 35.4 0.00 0.00 0.00 28 1007.9
20260505011003 18 360 19.3 32.2 0.00 0.00 0.00 27 1007.7
20260505010505 18 360 16.1 33.8 0.00 0.00 0.00 26 1007.6
20260505010026 19 360 14.5 33.8 0.00 0.00 0.00 24 1007.6
20260505005503 19 360 6.4 14.5 0.00 0.00 0.00 24 1007.5
20260505005007 20 360 4.8 14.5 0.00 0.00 0.00 24 1007.6
20260505004514 20 360 3.2 16.1 0.00 0.00 0.00 23 1007.7
20260505004003 20 360 8.0 16.1 0.00 0.00 0.00 23 1007.7
20260505003507 20 360 9.7 16.1 0.00 0.00 0.00 23 1007.5
20260505003010 20 360 9.7 14.5 0.00 0.00 0.00 23 1007.6
20260505002504 20 360 8.0 14.5 0.00 0.00 0.00 23 1007.7
20260505002008 20 360 6.4 14.5 0.00 0.00 0.00 23 1007.7
20260505001508 21 360 6.4 14.5 0.00 0.00 0.00 22 1007.7
20260505001006 21 360 6.4 12.9 0.00 0.00 0.00 21 1007.5
20260505000505 21 360 3.2 9.7 0.00 0.00 0.00 20 1007.6
20260505000019 21 360 3.2 9.7 0.00 0.00 0.00 21 1007.7
20260504235507 21 360 1.6 4.8 0.00 0.00 0.00 21 1007.7
20260504235006 21 360 0.0 4.8 0.00 0.00 0.00 21 1007.7
20260504234517 21 360 0.0 4.8 0.00 0.00 0.00 20 1007.7
20260504234007 21 360 0.0 4.8 0.00 0.00 0.00 21 1007.7
20260504233506 21 360 1.6 12.9 0.00 0.00 0.00 21 1007.7
20260504233025 21 360 3.2 12.9 0.00 0.00 0.00 21 1007.8
20260504232508 21 360 3.2 12.9 0.00 0.00 0.00 20 1007.7
20260504232010 21 360 4.8 12.9 0.00 0.00 0.00 20 1007.8
20260504231510 21 360 3.2 8.0 0.00 0.00 0.00 20 1007.7
20260504231009 21 360 3.2 8.0 0.00 0.00 0.00 20 1007.7
20260504230508 21 360 3.2 9.7 0.00 0.00 0.00 20 1007.7
20260504230029 21 360 4.8 14.5 0.00 0.00 0.00 20 1007.7
20260504225506 21 360 8.0 14.5 0.00 0.00 0.00 21 1007.7
20260504225007 21 242 3.2 14.5 0.00 0.00 0.00 20 1007.7
20260504224514 21 311 1.6 14.5 0.00 0.00 0.00 20 1007.8
20260504224008 21 260 1.6 20.9 0.00 0.00 0.00 21 1007.9
20260504223510 21 243 9.7 20.9 0.00 0.00 0.00 21 1007.9
20260504223014 21 217 8.0 16.1 0.00 0.00 0.00 21 1007.9
20260504222507 21 272 11.3 17.7 0.00 0.00 0.00 20 1008.0
20260504222007 21 277 11.3 17.7 0.00 0.00 0.00 20 1008.0
20260504221520 21 314 4.8 16.1 0.00 0.00 0.00 21 1008.0
20260504221007 21 235 8.0 16.1 0.00 0.00 0.00 20 1008.1
20260504220508 21 239 9.7 16.1 0.00 0.00 0.00 21 1008.2
20260504220018 21 267 8.0 17.7 0.00 0.00 0.00 20 1008.3
20260504215512 22 271 8.0 17.7 0.00 0.00 0.00 19 1008.3
20260504215011 22 315 11.3 17.7 0.00 0.00 0.00 19 1008.4
20260504214523 21 292 8.0 14.5 0.00 0.00 0.00 22 1008.4
20260504214007 21 211 8.0 14.5 0.00 0.00 0.00 21 1008.4
20260504213507 21 216 9.7 25.7 0.00 0.00 0.00 21 1008.5
20260504213013 21 232 16.1 25.7 0.00 0.00 0.00 20 1008.7
20260504212508 21 233 14.5 25.7 0.00 0.00 0.00 21 1008.7
20260504212010 21 194 14.5 29.0 0.00 0.00 0.00 20 1008.7
20260504211514 21 267 12.9 29.0 0.00 0.00 0.00 20 1008.9
20260504211004 21 241 19.3 29.0 0.00 0.00 0.00 20 1009.0
20260504210509 21 213 16.1 32.2 0.00 0.00 0.00 20 1009.0
20260504210020 21 246 19.3 32.2 0.00 0.00 0.00 20 1009.0
20260504205510 21 226 14.5 29.0 0.00 0.00 0.00 21 1009.1
20260504205010 21 225 19.3 29.0 0.00 0.00 0.00 21 1009.2
20260504204519 21 279 14.5 27.4 0.00 0.00 0.00 19 1009.3
20260504204009 22 275 17.7 27.4 0.00 0.00 0.00 19 1009.3
20260504203509 22 240 9.7 35.4 0.00 0.00 0.00 19 1009.2
20260504203011 23 252 20.9 35.4 0.00 0.00 0.00 17 1009.2
20260504202504 23 327 17.7 27.4 0.00 0.00 0.00 17 1009.1
20260504202005 22 317 3.2 17.7 0.00 0.00 0.00 17 1009.3
20260504201510 22 221 4.8 17.7 0.00 0.00 0.00 17 1009.5
20260504201005 22 185 11.3 22.5 0.00 0.00 0.00 18 1009.4
20260504200505 21 259 12.9 29.0 0.00 0.00 0.00 18 1009.8
20260504200006 21 294 14.5 30.6 0.00 0.00 0.00 16 1009.8
20260504195506 22 288 20.9 30.6 0.00 0.00 0.00 18 1009.8
20260504195003 22 227 11.3 25.7 0.00 0.00 0.00 18 1009.8
20260504194505 23 259 11.3 20.9 0.00 0.00 0.00 16 1009.8
20260504194003 23 309 11.3 38.6 0.00 0.00 0.00 17 1009.8
20260504193504 22 277 12.9 38.6 0.00 0.00 0.00 16 1009.8
20260504193004 23 270 14.5 30.6 0.00 0.00 0.00 17 1009.8
20260504192503 22 329 6.4 27.4 0.00 0.00 0.00 16 1009.8
20260504192007 22 229 16.1 27.4 0.00 0.00 0.00 16 1010.0
20260504191505 22 243 8.0 24.1 0.00 0.00 0.00 17 1010.1
20260504191006 23 232 16.1 20.9 0.00 0.00 0.00 16 1010.1
20260504190504 23 279 9.7 20.9 0.00 0.00 0.00 17 1010.0
20260504190022 23 342 12.9 35.4 0.00 0.00 0.00 16 1010.0
20260504185504 23 300 14.5 35.4 0.00 0.00 0.00 16 1010.1
20260504185003 22 331 8.0 25.7 0.00 0.00 0.00 17 1010.2
20260504184508 22 322 14.5 25.7 0.00 0.00 0.00 17 1010.2
20260504184002 22 268 11.3 24.1 0.00 0.00 0.00 17 1010.4
20260504183502 23 300 17.7 27.4 0.00 0.00 0.00 17 1010.6
20260504183004 22 294 17.7 40.2 0.00 0.00 0.00 18 1010.6
20260504182503 21 298 24.1 40.2 0.00 0.00 0.00 16 1010.7
20260504182009 22 260 17.7 32.2 0.00 0.00 0.00 16 1010.7
20260504181508 22 329 20.9 30.6 0.00 0.00 0.00 18 1010.7
20260504181003 22 296 22.5 30.6 0.00 0.00 0.00 18 1010.9
20260504180507 22 344 20.9 30.6 0.00 0.00 0.00 17 1010.8
20260504180005 22 316 17.7 33.8 0.00 0.00 0.00 17 1010.9
20260504175504 22 327 20.9 37.0 0.00 0.00 0.00 17 1011.0
20260504175003 22 314 22.5 37.0 0.00 0.00 0.00 17 1011.0
20260504174504 21 313 16.1 33.8 0.00 0.00 0.00 18 1011.2
20260504174007 21 333 19.3 27.4 0.00 0.00 0.00 19 1011.2
20260504173506 21 315 17.7 40.2 0.00 0.00 0.00 18 1011.3
20260504173004 21 315 16.1 40.2 0.00 0.00 0.00 19 1011.4
20260504172502 21 298 22.5 40.2 0.00 0.00 0.00 18 1011.3
20260504172008 21 338 8.0 29.0 0.00 0.00 0.00 18 1011.4